Location: Pontbriand
(46.1542°N, 71.2542°W)
Time: 10:37:26
(UTC+00:00)

Envisat - Pass Details

Date: 08 December 2021
Orbit: 764 x 766 km, 98.2° (Epoch: 20 January)

Event Time Altitude Azimuth Distance (km) Brightness Sun altitude
Rises 09:42:57 0° 15° (NNE) 3,244 6.3 -25.4°
Reaches altitude 10° 09:45:17 10° 17° (NNE) 2,313 5.6 -25.0°
Maximum altitude 09:50:23 74° 102° (ESE) 798 3.1 -24.1°
Drops below altitude 10° 09:55:27 10° 188° (S) 2,295 5.5 -23.2°
Sets 09:57:44 0° 190° (S) 3,216 6.2 -22.8°
